197P/LINEAR (2008)

Japanese version
Home page
Total 5,708 html files since Dec. 4, 1995
Updated on May 6, 2008

---------------------------------------------------------------------

* Profile

Designation 197P/2008 E2
Recovery Date March 3, 2008
Magnitude 18.7 mag
Recoverers R. E. Hill (Catalina)

* Pictures

* Orbital Elements

                    Epoch = 2008 May  14.0 TT
     T = 2008 May  19.0176 TT         Peri. = 188.7935
     e = 0.630017                     Node  =  66.3890  2000.0
     q = 1.060435 AU                  Incl. =  25.5549
       a =  2.866176 AU    n = 0.2031187    P =   4.85 years

* Finding Charts

* Magnitudes Graph

        m1 = 17.5 + 5 log d + 10.0 log r

---------------------------------------------------------------------

The orbital elements are printed on IAUC 8924.
The charts are made with StellaNavigator Ver.8 (AstroArts).
The magnitudes graphs are made with Comet for Windows.

---------------------------------------------------------------------

Copyright(C) 1995-2007 Seiichi Yoshida (comet@aerith.net). All rights reserved.